Location: Marse
(42.1502°N, 110.9866°W)
Time: 23:01:05
(UTC+00:00)

QB50P2 - Pass Details

Date: 01 July 2022
Orbit: 590 x 605 km, 97.9° (Epoch: 18 August)

Event Time Altitude Azimuth Distance (km) Brightness Sun altitude
Rises 09:44:49 0° 359° (N) 2,860 ? -17.5°
Reaches altitude 10° 09:47:19 10° 345° (NNW) 1,955 ? -17.2°
Maximum altitude 09:50:40 23° 293° (WNW) 1,291 ? -16.9°
Enters shadow 09:52:07 19° 264° (W) 1,435 ? -16.7°
